Home   Weather   Pori   Past weeks

Flag for Finland Past Weather in Pori, Finland — Yesterday and Last 2 Weeks

Now
32 °F

Clear.


Feels Like: 27 °F
Forecast: 29 / 45 °F
Wind: 5 mph from Northwest

Location: Pori Airport

Current Time: Apr 27, 2017 at 11:47:58 pm

Latest Report: Apr 27, 2017 at 10:50 pm


Visibility: 10 mi

Pressure: 29.92 "Hg

Humidity: 87%

Dew Point: 28 °F

Location of PoriLocation

Past Weather in Pori — Graph

°F

Pori Temperature Yesterday

Maximum temperature yesterday: 41 °F (at 3:50 pm)
Minimum temperature yesterday: 28 °F (at 12:50 am)
Average temperature yesterday: 35 °F

High & Low Weather Summary for the Past Weeks

 TemperatureHumidityPressure
High46 °F (Apr 20, 12:20 pm)100% (Apr 21, 7:50 am)30.48 "Hg (Apr 21, 7:50 am)
Low18 °F (Apr 15, 6:20 am)26% (Apr 18, 2:20 pm)29.15 "Hg (Apr 22, 4:20 am)
Average34 °F68%29.77 "Hg
* Reported Apr 12 9:20 pm — Apr 27 9:50 pm, Pori, Weather by CustomWeather, © 2017

Note: Actual official high and low records may vary slightly from our data, if they occured in-between our weather recording intervals... More about our weather records

Advertising

Pori Weather History for the Previous 24 Hours

Scroll right to see more
 ConditionsComfort  
Time TempWeatherWind HumidityBarometerVisibility
9:50 pm
Thu, Apr 27
34 °FClear.5 mph81%29.89 "Hg10 mi
9:20 pm36 °FSunny.3 mph70%29.89 "Hg10 mi
8:50 pm37 °FSunny.6 mph65%29.86 "Hg10 mi
8:20 pm37 °FSunny.8 mph60%29.86 "Hg10 mi
7:50 pm39 °FSunny.9 mph56%29.83 "Hg10 mi
7:20 pm39 °FSunny.9 mph56%29.83 "Hg10 mi
6:50 pm41 °FSunny.12 mph53%29.83 "Hg10 mi
6:20 pm41 °FSunny.10 mph57%29.83 "Hg10 mi
5:50 pm43 °FPassing clouds.10 mph53%29.80 "HgN/A
5:20 pm43 °FPassing clouds.10 mph57%29.80 "HgN/A
4:50 pm43 °FSunny.12 mph57%29.80 "Hg10 mi
4:20 pm43 °FPassing clouds.12 mph57%29.77 "HgN/A
3:50 pm43 °FPassing clouds.12 mph53%29.77 "HgN/A
3:20 pm43 °FPassing clouds.12 mph49%29.77 "HgN/A
2:50 pm43 °FPassing clouds.14 mph49%29.74 "HgN/A
2:20 pm45 °FPassing clouds.13 mph46%29.74 "HgN/A
1:50 pm45 °FSunny.13 mph42%29.74 "Hg10 mi
1:20 pm45 °FPassing clouds.13 mph46%29.74 "HgN/A
12:50 pm45 °FPassing clouds.14 mph49%29.71 "HgN/A
12:20 pm45 °FPassing clouds.13 mph53%29.71 "HgN/A
11:50 am45 °FSunny.13 mph53%29.71 "Hg10 mi
11:20 am45 °FPassing clouds.13 mph49%29.68 "HgN/A
10:50 am43 °FSunny.10 mph57%29.68 "Hg10 mi
10:20 am43 °FSunny.10 mph57%29.68 "Hg10 mi
9:50 am41 °FSunny.9 mph61%29.65 "Hg10 mi
9:20 am41 °FSunny.8 mph66%29.65 "Hg10 mi
8:50 am39 °FPassing clouds.7 mph70%29.65 "HgN/A
8:20 am39 °FPassing clouds.6 mph70%29.65 "HgN/A
7:50 am37 °FSunny.7 mph81%29.65 "Hg10 mi
7:20 am36 °FSunny.6 mph87%29.62 "Hg10 mi
6:50 am34 °FSunny.5 mph93%29.62 "Hg10 mi
6:20 am34 °FSunny.6 mph87%29.62 "Hg10 mi
5:50 am34 °FSunny.6 mph87%29.62 "Hg10 mi
5:20 am34 °FClear.6 mph87%29.62 "Hg10 mi
4:50 am34 °FClear.5 mph87%29.62 "Hg10 mi
4:20 am36 °FPassing clouds.6 mph81%29.59 "HgN/A
3:50 am34 °FClear.7 mph87%29.59 "Hg10 mi
3:20 am34 °FPassing clouds.6 mph87%29.59 "HgN/A
2:50 am34 °FClear.6 mph87%29.59 "Hg10 mi
2:20 am36 °FPassing clouds.8 mph81%29.59 "HgN/A
1:50 am37 °FPassing clouds.10 mph81%29.59 "HgN/A
1:20 am37 °FPartly cloudy.9 mph75%29.59 "HgN/A
12:50 am37 °FPassing clouds.10 mph81%29.59 "HgN/A
12:20 am37 °FPassing clouds.10 mph75%29.59 "HgN/A
11:50 pm
Wed, Apr 26
37 °FPassing clouds.8 mph75%29.59 "HgN/A
11:20 pm37 °FPartly cloudy.8 mph75%29.59 "HgN/A
Weather by CustomWeather, © 2017

See weather overviewHow to use our weather pages